Time,TemperatureF,DewpointF,PressureIn,WindDirection,WindDirectionDegrees,WindSpeedMPH,WindSpeedGustMPH,Humidity,HourlyPrecipIn,Conditions,Clouds,dailyrainin,SolarRadiationWatts/m^2,SoftwareType,DateUTC
2013-07-16 10:43:00,72.0,36.0,-100.00,NNW,339,8.0,14.0,27,0.00,,,0.00,749.000000,,2013-07-16 17:43:00,
2013-07-16 10:53:00,72.0,36.0,-100.00,NNW,339,8.0,14.0,27,0.00,,,0.00,749.000000,,2013-07-16 17:53:00,
2013-07-16 11:01:00,72.0,36.0,-100.00,NNW,339,8.0,14.0,27,0.00,,,0.00,749.000000,,2013-07-16 18:01:00,
2013-07-16 11:11:00,72.0,36.0,-100.00,NNW,339,8.0,14.0,27,0.00,,,0.00,749.000000,,2013-07-16 18:11:00,
2013-07-16 11:43:00,75.0,37.0,-100.00,NW,326,9.0,14.0,25,0.00,,,0.00,904.000000,,2013-07-16 18:43:00,
2013-07-16 11:52:00,75.0,37.0,-100.00,NW,326,9.0,14.0,25,0.00,,,0.00,904.000000,,2013-07-16 18:52:00,
2013-07-16 12:01:00,75.0,37.0,-100.00,NW,326,9.0,14.0,25,0.00,,,0.00,904.000000,,2013-07-16 19:01:00,
2013-07-16 12:11:00,75.0,37.0,-100.00,NW,326,9.0,14.0,25,0.00,,,0.00,904.000000,,2013-07-16 19:11:00,
2013-07-16 12:43:00,78.0,36.0,-100.00,NW,321,8.0,16.0,22,0.00,,,0.00,1057.000000,,2013-07-16 19:43:00,
2013-07-16 12:52:00,78.0,36.0,-100.00,NW,321,8.0,16.0,22,0.00,,,0.00,1057.000000,,2013-07-16 19:52:00,
2013-07-16 13:03:00,78.0,36.0,-100.00,NW,321,8.0,16.0,22,0.00,,,0.00,1057.000000,,2013-07-16 20:03:00,
2013-07-16 13:11:00,78.0,36.0,-100.00,NW,321,8.0,16.0,22,0.00,,,0.00,1057.000000,,2013-07-16 20:11:00,
2013-07-16 13:43:00,78.0,37.0,-100.00,North,356,9.0,16.0,23,0.00,,,0.00,859.000000,,2013-07-16 20:43:00,
2013-07-16 13:52:00,78.0,37.0,-100.00,North,356,9.0,16.0,23,0.00,,,0.00,859.000000,,2013-07-16 20:52:00,
2013-07-16 14:01:00,78.0,37.0,-100.00,North,356,9.0,16.0,23,0.00,,,0.00,859.000000,,2013-07-16 21:01:00,
2013-07-16 14:11:00,78.0,37.0,-100.00,North,356,9.0,16.0,23,0.00,,,0.00,859.000000,,2013-07-16 21:11:00,
2013-07-16 14:52:00,79.0,37.0,-100.00,NNW,342,8.0,17.0,22,0.00,,,0.00,949.000000,,2013-07-16 21:52:00,
2013-07-16 15:01:00,79.0,37.0,-100.00,NNW,342,8.0,17.0,22,0.00,,,0.00,949.000000,,2013-07-16 22:01:00,
2013-07-16 15:11:00,79.0,37.0,-100.00,NNW,342,8.0,17.0,22,0.00,,,0.00,949.000000,,2013-07-16 22:11:00,
2013-07-16 15:43:00,82.0,41.0,-100.00,NNW,338,8.0,16.0,23,0.00,,,-99.99,772.000000,,2013-07-16 22:43:00,
2013-07-16 15:52:00,82.0,41.0,-100.00,NNW,338,8.0,16.0,23,0.00,,,-99.99,772.000000,,2013-07-16 22:52:00,
2013-07-16 16:01:00,82.0,41.0,-100.00,NNW,338,8.0,16.0,23,0.00,,,-99.99,772.000000,,2013-07-16 23:01:00,
2013-07-16 16:11:00,82.0,41.0,-100.00,NNW,338,8.0,16.0,23,0.00,,,-99.99,772.000000,,2013-07-16 23:11:00,
2013-07-16 16:43:00,83.0,39.0,-100.00,NW,318,10.0,15.0,21,0.00,,,0.00,897.000000,,2013-07-16 23:43:00,
2013-07-16 16:52:00,83.0,39.0,-100.00,NW,318,10.0,15.0,21,0.00,,,0.00,897.000000,,2013-07-16 23:52:00,
2013-07-16 17:01:00,83.0,39.0,-100.00,NW,318,10.0,15.0,21,0.00,,,0.00,897.000000,,2013-07-17 00:01:00,
2013-07-16 17:11:00,83.0,39.0,-100.00,NW,318,10.0,15.0,21,0.00,,,0.00,897.000000,,2013-07-17 00:11:00,
2013-07-16 18:43:00,79.0,37.0,-100.00,NW,326,12.0,19.0,22,-99.99,,,0.00,539.000000,,2013-07-17 01:43:00,
2013-07-16 18:53:00,79.0,37.0,-100.00,NW,326,12.0,19.0,22,-99.99,,,0.00,539.000000,,2013-07-17 01:53:00,
2013-07-16 19:01:00,79.0,37.0,-100.00,NW,326,12.0,19.0,22,-99.99,,,0.00,539.000000,,2013-07-17 02:01:00,
2013-07-16 19:11:00,79.0,37.0,-100.00,NW,326,12.0,19.0,22,-99.99,,,0.00,539.000000,,2013-07-17 02:11:00,
2013-07-16 19:32:00,74.0,36.0,-100.00,NNW,338,11.0,17.0,25,0.00,,,0.00,330.000000,,2013-07-17 02:32:00,
2013-07-16 19:43:00,74.0,36.0,-100.00,NNW,338,11.0,17.0,25,0.00,,,0.00,330.000000,,2013-07-17 02:43:00,
2013-07-16 19:53:00,74.0,36.0,-100.00,NNW,338,11.0,17.0,25,0.00,,,0.00,330.000000,,2013-07-17 02:53:00,
2013-07-16 20:01:00,74.0,36.0,-100.00,NNW,338,11.0,17.0,25,0.00,,,0.00,330.000000,,2013-07-17 03:01:00,
2013-07-16 20:11:00,74.0,36.0,-100.00,NNW,338,11.0,17.0,25,0.00,,,0.00,330.000000,,2013-07-17 03:11:00,
2013-07-16 20:43:00,72.0,36.0,-100.00,NNW,333,8.0,17.0,27,0.00,,,0.00,136.000000,,2013-07-17 03:43:00,
2013-07-16 20:53:00,72.0,36.0,-100.00,NNW,333,8.0,17.0,27,0.00,,,0.00,136.000000,,2013-07-17 03:53:00,
2013-07-16 21:01:00,72.0,36.0,-100.00,NNW,333,8.0,17.0,27,0.00,,,0.00,136.000000,,2013-07-17 04:01:00,
2013-07-16 21:11:00,72.0,36.0,-100.00,NNW,333,8.0,17.0,27,0.00,,,0.00,136.000000,,2013-07-17 04:11:00,
2013-07-16 21:43:00,69.0,35.0,-100.00,North,356,7.0,13.0,28,0.00,,,-99.99,11.000000,,2013-07-17 04:43:00,
2013-07-16 21:53:00,69.0,35.0,-100.00,North,356,7.0,13.0,28,0.00,,,-99.99,11.000000,,2013-07-17 04:53:00,
2013-07-16 22:01:00,69.0,35.0,-100.00,North,356,7.0,13.0,28,0.00,,,-99.99,11.000000,,2013-07-17 05:01:00,
2013-07-16 22:11:00,69.0,35.0,-100.00,North,356,7.0,13.0,28,0.00,,,-99.99,11.000000,,2013-07-17 05:11:00,
2013-07-16 22:43:00,69.0,35.0,-100.00,NNW,335,4.0,8.0,29,0.00,,,-99.99,0.000000,,2013-07-17 05:43:00,
2013-07-16 22:52:00,69.0,35.0,-100.00,NNW,335,4.0,8.0,29,0.00,,,-99.99,0.000000,,2013-07-17 05:52:00,
2013-07-16 23:01:00,69.0,35.0,-100.00,NNW,335,4.0,8.0,29,0.00,,,-99.99,0.000000,,2013-07-17 06:01:00,
2013-07-16 23:11:00,69.0,35.0,-100.00,NNW,335,4.0,8.0,29,0.00,,,-99.99,0.000000,,2013-07-17 06:11:00,
2013-07-16 23:43:00,66.0,34.0,-100.00,West,266,5.0,7.0,31,0.00,,,-99.99,0.000000,,2013-07-17 06:43:00,
2013-07-16 23:52:00,66.0,34.0,-100.00,West,266,5.0,7.0,31,0.00,,,-99.99,0.000000,,2013-07-17 06:52:00,